ASP567 KTEB-CYGK

Flight info

Callsign ASP567
Flight time 0h 50m
Altitude 43000
Route GAYEL Q812 SYR DCT KIXIR DCT OBRUM
Aircraft C25B/M-SDE2E3FGHRWXY/LB1

Departure

Time 2026-05-04 03:22
Airport Teterboro Airport (KTEB)

Arrival

Time 2026-05-04 04:12
Airport Kingston Norman Rogers Airport (CYGK)
Time Latitude Longitude Altitude Speed Heading
2026-05-04 03:13 40.84219 -74.06423 14 ft 0 kts 336°
2026-05-04 03:16 40.84220 -74.06424 14 ft 1 kts 336°
2026-05-04 03:17 40.84248 -74.06408 13 ft 7 kts 92°
2026-05-04 03:17 40.84245 -74.06335 13 ft 9 kts 93°
2026-05-04 03:17 40.84239 -74.06187 9 ft 15 kts 89°
2026-05-04 03:17 40.84279 -74.06153 10 ft 8 kts
2026-05-04 03:18 40.84351 -74.06147 9 ft 13 kts
2026-05-04 03:18 40.84460 -74.06141 9 ft 18 kts
2026-05-04 03:18 40.84591 -74.06127 10 ft 19 kts
2026-05-04 03:18 40.84730 -74.06118 10 ft 20 kts
2026-05-04 03:19 40.84875 -74.06108 10 ft 21 kts
2026-05-04 03:19 40.85029 -74.06097 10 ft 23 kts
2026-05-04 03:19 40.85183 -74.06064 11 ft 22 kts 51°
2026-05-04 03:19 40.85290 -74.05910 9 ft 24 kts 44°
2026-05-04 03:20 40.85396 -74.05749 13 ft 23 kts 49°
2026-05-04 03:20 40.85502 -74.05594 14 ft 23 kts 48°
2026-05-04 03:20 40.85605 -74.05442 16 ft 23 kts 48°
2026-05-04 03:20 40.85695 -74.05339 15 ft 9 kts 343°
2026-05-04 03:21 40.85746 -74.05392 15 ft 11 kts 317°
2026-05-04 03:21 40.85731 -74.05474 15 ft 11 kts 230°
2026-05-04 03:21 40.85665 -74.05572 16 ft 23 kts 228°
2026-05-04 03:21 40.85390 -74.05978 10 ft 118 kts 227°
2026-05-04 03:22 40.84648 -74.07046 575 ft 190 kts 227°
2026-05-04 03:22 40.83757 -74.08529 1892 ft 224 kts 241°
2026-05-04 03:22 40.83162 -74.10594 3116 ft 240 kts 260°
2026-05-04 03:22 40.82998 -74.12638 4276 ft 223 kts 270°
2026-05-04 03:23 40.83097 -74.14763 5162 ft 236 kts 279°
2026-05-04 03:23 40.83165 -74.16941 6318 ft 241 kts 269°
2026-05-04 03:23 40.82909 -74.19166 7339 ft 249 kts 262°
2026-05-04 03:23 40.82527 -74.21423 8350 ft 255 kts 262°
2026-05-04 03:24 40.82161 -74.23738 9367 ft 259 kts 264°
2026-05-04 03:24 40.82050 -74.26095 10272 ft 258 kts 282°
2026-05-04 03:24 40.82884 -74.28188 10911 ft 271 kts 309°
2026-05-04 03:24 40.84444 -74.29721 11393 ft 290 kts 334°
2026-05-04 03:25 40.86439 -74.30305 12207 ft 300 kts 350°
2026-05-04 03:25 40.88556 -74.30433 12942 ft 308 kts 353°
2026-05-04 03:25 40.90718 -74.30553 13681 ft 313 kts 351°
2026-05-04 03:25 40.92898 -74.30802 14385 ft 316 kts 349°
2026-05-04 03:26 40.95099 -74.31051 15065 ft 320 kts 350°
2026-05-04 03:26 40.97334 -74.31279 15754 ft 324 kts 350°
2026-05-04 03:26 40.99594 -74.31506 16425 ft 327 kts 350°
2026-05-04 03:26 41.01879 -74.31755 17125 ft 331 kts 349°
2026-05-04 03:27 41.04192 -74.31979 17814 ft 336 kts 351°
2026-05-04 03:27 41.06532 -74.32199 18464 ft 339 kts 349°
2026-05-04 03:27 41.08892 -74.32448 19100 ft 341 kts 349°
2026-05-04 03:27 41.11239 -74.32692 19740 ft 343 kts 349°
2026-05-04 03:28 41.13623 -74.32937 20409 ft 345 kts 349°
2026-05-04 03:28 41.16026 -74.33183 21042 ft 347 kts 349°
2026-05-04 03:28 41.18450 -74.33423 21683 ft 350 kts 349°
2026-05-04 03:28 41.20887 -74.33679 22334 ft 353 kts 348°
2026-05-04 03:29 41.23342 -74.33932 22944 ft 356 kts 349°
2026-05-04 03:29 41.25824 -74.34189 23583 ft 358 kts 348°
2026-05-04 03:29 41.28319 -74.34442 24103 ft 361 kts 349°
2026-05-04 03:29 41.30839 -74.34701 24610 ft 364 kts 348°
2026-05-04 03:30 41.33363 -74.35027 25127 ft 363 kts 345°
2026-05-04 03:30 41.35794 -74.35855 25600 ft 360 kts 339°
2026-05-04 03:30 41.38100 -74.37114 26028 ft 357 kts 327°
2026-05-04 03:30 41.40229 -74.38804 26501 ft 356 kts 321°
2026-05-04 03:31 41.42134 -74.40905 26951 ft 355 kts 314°
2026-05-04 03:31 41.43786 -74.43337 27388 ft 355 kts 306°
2026-05-04 03:31 41.45148 -74.46032 27809 ft 355 kts 298°
2026-05-04 03:31 41.46364 -74.48914 28207 ft 358 kts 299°
2026-05-04 03:32 41.47632 -74.51781 28630 ft 360 kts 299°
2026-05-04 03:32 41.48889 -74.54682 29012 ft 362 kts 298°
2026-05-04 03:32 41.50145 -74.57604 29390 ft 364 kts 298°
2026-05-04 03:32 41.51407 -74.60543 29749 ft 366 kts 298°
2026-05-04 03:33 41.52685 -74.63492 30082 ft 368 kts 298°
2026-05-04 03:33 41.53967 -74.66471 30348 ft 370 kts 298°
2026-05-04 03:33 41.55257 -74.69461 30579 ft 373 kts 298°
2026-05-04 03:33 41.56547 -74.72473 30805 ft 375 kts 298°
2026-05-04 03:34 41.57427 -74.74520 30954 ft 377 kts 298°
2026-05-04 03:34 41.59301 -74.78393 31639 ft 370 kts 305°
2026-05-04 03:34 41.60993 -74.80994 31979 ft 373 kts 312°
2026-05-04 03:34 41.62915 -74.83279 32648 ft 368 kts 316°
2026-05-04 03:35 41.64890 -74.85464 33113 ft 367 kts 316°
2026-05-04 03:35 41.66848 -74.87625 33672 ft 365 kts 316°
2026-05-04 03:35 41.68807 -74.89789 34055 ft 366 kts 315°
2026-05-04 03:35 41.70763 -74.91963 34405 ft 366 kts 315°
2026-05-04 03:36 41.72729 -74.94138 34761 ft 366 kts 315°
2026-05-04 03:36 41.74690 -74.96316 35112 ft 367 kts 315°
2026-05-04 03:36 41.76657 -74.98495 35460 ft 367 kts 315°
2026-05-04 03:36 41.78621 -75.00681 35811 ft 367 kts 315°
2026-05-04 03:37 41.80591 -75.02867 36143 ft 367 kts 315°
2026-05-04 03:37 41.82554 -75.05056 36479 ft 367 kts 315°
2026-05-04 03:37 41.84520 -75.07245 36792 ft 368 kts 315°
2026-05-04 03:37 41.86494 -75.09441 37126 ft 368 kts 315°
2026-05-04 03:38 41.88463 -75.11640 37454 ft 368 kts 315°
2026-05-04 03:38 41.90431 -75.13838 37791 ft 368 kts 314°
2026-05-04 03:38 41.92397 -75.16037 38111 ft 368 kts 314°
2026-05-04 03:38 41.94344 -75.18209 38452 ft 367 kts 314°
2026-05-04 03:39 41.96291 -75.20388 38905 ft 363 kts 314°
2026-05-04 03:39 41.98230 -75.22563 39163 ft 363 kts 314°
2026-05-04 03:39 42.00175 -75.24746 39411 ft 364 kts 314°
2026-05-04 03:39 42.02121 -75.26929 39678 ft 365 kts 314°
2026-05-04 03:40 42.04072 -75.29115 39942 ft 364 kts 314°
2026-05-04 03:40 42.06034 -75.31288 40154 ft 367 kts 317°
2026-05-04 03:40 42.08209 -75.33154 40427 ft 373 kts 323°
2026-05-04 03:40 42.10451 -75.34927 40711 ft 375 kts 323°
2026-05-04 03:41 42.12700 -75.36713 41097 ft 375 kts 323°
2026-05-04 03:41 42.14943 -75.38503 41451 ft 375 kts 323°
2026-05-04 03:41 42.17189 -75.40291 41702 ft 376 kts 323°
2026-05-04 03:41 42.19446 -75.42080 41959 ft 376 kts 323°
2026-05-04 03:42 42.21699 -75.43878 42223 ft 377 kts 323°
2026-05-04 03:42 42.23958 -75.45679 42491 ft 377 kts 323°
2026-05-04 03:42 42.26214 -75.47479 42744 ft 377 kts 323°
2026-05-04 03:42 42.28477 -75.49290 42938 ft 379 kts 324°
2026-05-04 03:43 42.30746 -75.51098 42943 ft 377 kts 324°
2026-05-04 03:43 42.35227 -75.54683 42925 ft 372 kts 323°
2026-05-04 03:44 42.39689 -75.58268 42922 ft 378 kts 323°
2026-05-04 03:44 42.44276 -75.61951 42926 ft 388 kts 324°
2026-05-04 03:45 42.48968 -75.65725 42931 ft 396 kts 324°
2026-05-04 03:45 42.53742 -75.69573 42769 ft 403 kts 324°
2026-05-04 03:45 42.56156 -75.71521 42240 ft 402 kts 324°
2026-05-04 03:46 42.58557 -75.73455 41716 ft 401 kts 324°
2026-05-04 03:46 42.60912 -75.75361 41196 ft 399 kts 324°
2026-05-04 03:46 42.63289 -75.77286 40674 ft 396 kts 324°
2026-05-04 03:46 42.65650 -75.79202 40156 ft 394 kts 324°
2026-05-04 03:47 42.67998 -75.81103 39639 ft 392 kts 324°
2026-05-04 03:47 42.70334 -75.82998 39121 ft 389 kts 324°
2026-05-04 03:47 42.72657 -75.84886 38606 ft 387 kts 323°
2026-05-04 03:47 42.74958 -75.86762 38042 ft 384 kts 324°
2026-05-04 03:48 42.77238 -75.88611 37541 ft 379 kts 324°
2026-05-04 03:48 42.79488 -75.90445 37040 ft 375 kts 324°
2026-05-04 03:48 42.81708 -75.92255 36553 ft 370 kts 324°
2026-05-04 03:48 42.83910 -75.94052 36069 ft 367 kts 324°
2026-05-04 03:49 42.86087 -75.95831 35588 ft 363 kts 324°
2026-05-04 03:49 42.88246 -75.97597 35111 ft 360 kts 324°
2026-05-04 03:49 42.90389 -75.99346 34619 ft 358 kts 324°
2026-05-04 03:49 42.92514 -76.01089 34149 ft 355 kts 325°
2026-05-04 03:50 42.94621 -76.02813 33643 ft 352 kts 324°
2026-05-04 03:50 42.96710 -76.04527 33168 ft 348 kts 324°
2026-05-04 03:50 42.98771 -76.06216 32712 ft 344 kts 324°
2026-05-04 03:50 43.00810 -76.07893 32253 ft 341 kts 324°
2026-05-04 03:51 43.02829 -76.09552 31804 ft 337 kts 324°
2026-05-04 03:51 43.04826 -76.11195 31356 ft 333 kts 324°
2026-05-04 03:51 43.06806 -76.12823 30920 ft 332 kts 324°
2026-05-04 03:51 43.08808 -76.14479 30477 ft 339 kts 324°
2026-05-04 03:52 43.10845 -76.16160 30026 ft 345 kts 324°
2026-05-04 03:52 43.12913 -76.17866 29527 ft 348 kts 324°
2026-05-04 03:52 43.15084 -76.19377 29061 ft 353 kts 333°
2026-05-04 03:52 43.17430 -76.20441 28594 ft 359 kts 340°
2026-05-04 03:53 43.19925 -76.21004 28135 ft 367 kts 348°
2026-05-04 03:53 43.22481 -76.21352 27634 ft 370 kts 348°
2026-05-04 03:53 43.25044 -76.21710 27143 ft 372 kts 348°
2026-05-04 03:53 43.27629 -76.22070 26644 ft 373 kts 348°
2026-05-04 03:54 43.30176 -76.22429 26156 ft 374 kts 348°
2026-05-04 03:54 43.32762 -76.22787 25662 ft 374 kts 348°
2026-05-04 03:54 43.35354 -76.23155 25166 ft 376 kts 348°
2026-05-04 03:54 43.37130 -76.23401 24828 ft 383 kts 348°
2026-05-04 03:55 43.40701 -76.23912 24151 ft 396 kts 349°
2026-05-04 03:55 43.42570 -76.24166 23792 ft 401 kts 349°
2026-05-04 03:55 43.45363 -76.24560 23229 ft 406 kts 349°
2026-05-04 03:55 43.48172 -76.24950 22681 ft 403 kts 349°
2026-05-04 03:56 43.50929 -76.25341 22155 ft 394 kts 349°
2026-05-04 03:56 43.53639 -76.25716 21640 ft 387 kts 349°
2026-05-04 03:56 43.56301 -76.26100 21132 ft 382 kts 349°
2026-05-04 03:56 43.58933 -76.26467 20632 ft 378 kts 349°
2026-05-04 03:57 43.61509 -76.26834 20151 ft 375 kts 348°
2026-05-04 03:57 43.64098 -76.27200 19650 ft 373 kts 349°
2026-05-04 03:57 43.66669 -76.27562 19159 ft 371 kts 348°
2026-05-04 03:57 43.69229 -76.27928 18670 ft 369 kts 349°
2026-05-04 03:58 43.74314 -76.28651 17656 ft 365 kts 348°
2026-05-04 03:58 43.76832 -76.29001 17172 ft 362 kts 348°
2026-05-04 03:58 43.79332 -76.29364 16700 ft 360 kts 348°
2026-05-04 03:59 43.81822 -76.29715 16213 ft 359 kts 348°
2026-05-04 03:59 43.84302 -76.30069 15738 ft 358 kts 348°
2026-05-04 03:59 43.86777 -76.30417 15262 ft 357 kts 348°
2026-05-04 03:59 43.89241 -76.30777 14792 ft 355 kts 348°
2026-05-04 04:00 43.91690 -76.31119 14446 ft 352 kts 348°
2026-05-04 04:00 43.94123 -76.31470 14006 ft 351 kts 348°
2026-05-04 04:00 43.96546 -76.31816 13517 ft 342 kts 348°
2026-05-04 04:00 43.98791 -76.32109 13071 ft 298 kts 348°
2026-05-04 04:01 44.00679 -76.32376 12711 ft 266 kts 346°
2026-05-04 04:01 44.02486 -76.32660 12361 ft 258 kts 346°
2026-05-04 04:01 44.04264 -76.32921 12024 ft 259 kts 346°
2026-05-04 04:01 44.06076 -76.33190 11681 ft 264 kts 346°
2026-05-04 04:02 44.07917 -76.33445 11327 ft 268 kts 346°
2026-05-04 04:02 44.09781 -76.33717 10970 ft 271 kts 346°
2026-05-04 04:02 44.11664 -76.33980 10613 ft 272 kts 346°
2026-05-04 04:02 44.13541 -76.34256 10253 ft 271 kts 346°
2026-05-04 04:03 44.15371 -76.34669 9893 ft 261 kts 336°
2026-05-04 04:03 44.17063 -76.35515 9532 ft 257 kts 334°
2026-05-04 04:03 44.18775 -76.36227 9191 ft 256 kts 335°
2026-05-04 04:03 44.20452 -76.36997 8849 ft 252 kts 333°
2026-05-04 04:04 44.22110 -76.37765 8519 ft 251 kts 334°
2026-05-04 04:04 44.23775 -76.38527 8183 ft 252 kts 333°
2026-05-04 04:04 44.25447 -76.39299 7850 ft 255 kts 334°
2026-05-04 04:04 44.26658 -76.39843 7607 ft 256 kts 334°
2026-05-04 04:05 44.28352 -76.40634 7271 ft 258 kts 334°
2026-05-04 04:05 44.30067 -76.41411 6927 ft 260 kts 334°
2026-05-04 04:05 44.31786 -76.42211 6590 ft 261 kts 334°
2026-05-04 04:05 44.33506 -76.42994 6240 ft 258 kts 334°
2026-05-04 04:06 44.35189 -76.43762 5894 ft 247 kts 334°
2026-05-04 04:06 44.36737 -76.44565 5568 ft 226 kts 324°
2026-05-04 04:06 44.37954 -76.45790 5274 ft 209 kts 313°
2026-05-04 04:06 44.38903 -76.47245 5019 ft 199 kts 299°
2026-05-04 04:07 44.39577 -76.48889 4784 ft 191 kts 288°
2026-05-04 04:07 44.39973 -76.50634 4551 ft 186 kts 278°
2026-05-04 04:07 44.40102 -76.52364 4343 ft 176 kts 269°
2026-05-04 04:07 44.40029 -76.54042 4145 ft 171 kts 264°
2026-05-04 04:08 44.39929 -76.55697 3935 ft 171 kts 261°
2026-05-04 04:08 44.39564 -76.57279 3695 ft 171 kts 249°
2026-05-04 04:08 44.38962 -76.58713 3478 ft 173 kts 237°
2026-05-04 04:08 44.38119 -76.59924 3244 ft 176 kts 225°
2026-05-04 04:09 44.37062 -76.60827 3008 ft 181 kts 212°
2026-05-04 04:09 44.35811 -76.61294 2766 ft 188 kts 200°
2026-05-04 04:09 44.34544 -76.61383 2518 ft 177 kts 186°
2026-05-04 04:09 44.33366 -76.61305 2295 ft 164 kts 188°
2026-05-04 04:10 44.32248 -76.61218 2075 ft 158 kts 185°
2026-05-04 04:10 44.31160 -76.61091 1870 ft 156 kts 185°
2026-05-04 04:10 44.30108 -76.61003 1698 ft 142 kts 184°
2026-05-04 04:10 44.29153 -76.60892 1565 ft 138 kts 185°
2026-05-04 04:11 44.28168 -76.60814 1377 ft 146 kts 182°
2026-05-04 04:11 44.27143 -76.60709 1141 ft 149 kts 179°
2026-05-04 04:11 44.26106 -76.60569 933 ft 149 kts 178°
2026-05-04 04:11 44.25152 -76.60499 700 ft 126 kts 179°
2026-05-04 04:12 44.24308 -76.60428 533 ft 121 kts 178°
2026-05-04 04:12 44.23477 -76.60336 387 ft 117 kts 179°
2026-05-04 04:12 44.22697 -76.60255 306 ft 102 kts 179°
2026-05-04 04:12 44.22133 -76.60206 301 ft 49 kts 176°
2026-05-04 04:13 44.21987 -76.60189 299 ft 17 kts 170°
2026-05-04 04:13 44.21906 -76.60136 301 ft 9 kts 119°
2026-05-04 04:13 44.21875 -76.60046 299 ft 12 kts 116°
2026-05-04 04:13 44.21873 -76.59933 299 ft 11 kts 98°
2026-05-04 04:14 44.21841 -76.59913 299 ft 0 kts 217°